This is the latest recevied weather packets stored in our database for station/object TVARMINN. If no packets are shown the sender has not sent any weather packets the latest 10 day(s).
| Time | Temp. | Humidity | Pressure | Rain* | Wind** | Luminosity | Snow |
|---|---|---|---|---|---|---|---|
| 1777191996 | 4.44° C | 34% | 1004.9 hPa | 0 mm | - | - | - |
| 1777190796 | 5.56° C | 35% | 1004.8 hPa | 0 mm | - | - | - |
| 1777189596 | 5.56° C | 35% | 1004.6 hPa | 0 mm | - | - | - |
| 1777188396 | 4.44° C | 35% | 1004.4 hPa | 0 mm | - | - | - |
| 1777187196 | 4.44° C | 38% | 1004.3 hPa | 0 mm | - | - | - |
| 1777185996 | 4.44° C | 41% | 1004.1 hPa | 0 mm | - | - | - |
| 1777184796 | 3.89° C | 42% | 1003.9 hPa | 0 mm | - | - | - |
| 1777183596 | 3.33° C | 45% | 1003.7 hPa | 0 mm | - | - | - |
| 1777182396 | 2.78° C | 48% | 1003.4 hPa | 0 mm | - | - | - |
| 1777181196 | 2.78° C | 51% | 1003.2 hPa | 0 mm | - | - | - |
| 1777179996 | 1.67° C | 54% | 1002.7 hPa | 0 mm | - | - | - |
| 1777178795 | 1.67° C | 54% | 1002.5 hPa | 0 mm | - | - | - |
| 1777177595 | 1.67° C | 53% | 1002 hPa | 0 mm | - | - | - |
| 1777176395 | 1.11° C | 52% | 1001.7 hPa | 0 mm | - | - | - |
| 1777175196 | 1.11° C | 52% | 1001.4 hPa | 0 mm | - | - | - |
| 1777173996 | 1.11° C | 53% | 1001.1 hPa | 0 mm | - | - | - |
| 1777172795 | 0.56° C | 55% | 1000.9 hPa | 0 mm | - | - | - |
| 1777171595 | 0.56° C | 56% | 1000.6 hPa | 0 mm | - | - | - |
| 1777170395 | 0.56° C | 55% | 1000.3 hPa | 0 mm | - | - | - |
| 1777169195 | 0.56° C | 55% | 1000.1 hPa | 0 mm | - | - | - |
| 1777167996 | 1.11° C | 54% | 999.8 hPa | 0 mm | - | - | - |
| 1777166796 | 0.56° C | 55% | 999.7 hPa | 0 mm | - | - | - |
| 1777165595 | 0.56° C | 55% | 999.4 hPa | 0 mm | - | - | - |
| 1777164395 | 1.11° C | 54% | 999 hPa | 0 mm | - | - | - |
| 1777163195 | 1.11° C | 54% | 998.9 hPa | 0 mm | - | - | - |
* Rain latest hour (hover to see other rain measurements)
** Current wind speed in m/s (hover to see current wind gust speed)